Terre Haute, IN

1:06 AM EST on December 08, 2019 (GMT -0500)
Terre Haute International-Hulman

Weather History for KHUF - November, 2019

Change the Weather History Date:

Thursday, November 14, 2019

  Actual Average Record
Temperature  
Mean Temperature 30 °F 44 °F  
Max Temperature 40 °F 54 °F 80 °F (1955)
Min Temperature 20 °F 35 °F 9 °F (1986)
Degree Days  
Heating Degree Days 35 21  
Month to date heating degree days 421 256  
Since 1 July heating degree days 741 683  
Cooling Degree Days 0 0  
Month to date cooling degree days 0 0  
Year to date cooling degree days 1298 993  
Moisture  
Dew Point 23 °F    
Average Humidity 69    
Maximum Humidity 84    
Minimum Humidity 54    
Precipitation  
Precipitation 0.00 in 0.13 in 3.22 in (1993)
Month to date precipitation 0.34 1.77  
Year to date precipitation 43.71 40.04  
Sea Level Pressure  
Sea Level Pressure 30.27 in    
Wind  
Wind Speed 6 mph (West)    
Max Wind Speed 12 mph    
Max Gust Speed 15 mph    
Visibility 10 miles    
Events      
T = Trace of Precipitation, MM = Missing Value Source: NWS Daily Summary

Daily Weather History Graph

Daily Weather History Graph

Search for Another Location

Airport or City:

Astronomy

Nov. 14, 2019 Rise Set
Actual Time 7:31 AM EST 5:35 PM EST
Civil Twilight 7:03 AM EST 6:03 PM EST
Nautical Twilight 6:30 AM EST 6:36 PM EST
Astronomical Twilight 5:58 AM EST 7:07 PM EST
Moon 7:20 PM EST (11/14) 9:26 AM EST (11/14)
Length of Visible Light 11h 00m
Length of Day
10h 03m
Waning Gibbous, 95% of the Moon is Illuminated
Nov 14
Waning Gibbous
Nov 19
Last Quarter
Nov 26
New
Dec 4
First Quarter
Dec 12
Full

Hourly Weather History & Observations

Time (EST) Temp. Windchill Dew Point Humidity Pressure Visibility Wind Dir Wind Speed Gust Speed Precip Events Conditions
12:53 AM 30.9 °F 23.5 °F 19.9 °F 64% 30.16 in 10.0 mi SSW 8.1 mph - N/A   Overcast
1:53 AM 30.0 °F 22.4 °F 19.9 °F 66% 30.16 in 10.0 mi SSW 8.1 mph - N/A   Mostly Cloudy
2:53 AM 30.9 °F 25.2 °F 19.9 °F 64% 30.17 in 10.0 mi SSW 5.8 mph - N/A   Overcast
3:53 AM 30.9 °F 25.2 °F 21.0 °F 67% 30.17 in 10.0 mi SSW 5.8 mph - N/A   Overcast
4:53 AM 30.0 °F 24.1 °F 21.0 °F 69% 30.17 in 10.0 mi South 5.8 mph - N/A   Overcast
5:53 AM 27.0 °F 23.0 °F 19.0 °F 72% 30.19 in 10.0 mi South 3.5 mph - N/A   Clear
6:53 AM 21.9 °F 17.2 °F 17.1 °F 82% 30.21 in 10.0 mi SSE 3.5 mph - N/A   Clear
7:53 AM 21.0 °F - 18.0 °F 88% 30.23 in 10.0 mi Calm Calm - N/A   Clear
8:53 AM 25.0 °F - 19.9 °F 81% 30.25 in 10.0 mi Calm Calm - N/A   Clear
9:53 AM 32.0 °F 25.6 °F 23.0 °F 69% 30.27 in 10.0 mi WSW 6.9 mph - N/A   Overcast
10:53 AM 33.1 °F 27.7 °F 21.9 °F 64% 30.27 in 10.0 mi WSW 5.8 mph - N/A   Overcast
11:53 AM 34.0 °F 31.0 °F 23.0 °F 64% 30.27 in 10.0 mi SW 3.5 mph - N/A   Overcast
12:53 PM 36.0 °F 32.1 °F 24.1 °F 62% 30.27 in 10.0 mi WSW 4.6 mph - N/A   Overcast
1:53 PM 37.0 °F 32.4 °F 24.1 °F 59% 30.27 in 10.0 mi WSW 5.8 mph - N/A   Overcast
2:53 PM 39.0 °F 35.7 °F 25.0 °F 57% 30.27 in 10.0 mi West 4.6 mph - N/A   Partly Cloudy
3:53 PM 39.0 °F 33.4 °F 24.1 °F 55% 30.28 in 10.0 mi West 8.1 mph - N/A   Scattered Clouds
4:53 PM 37.0 °F 31.0 °F 26.1 °F 65% 30.31 in 10.0 mi NW 8.1 mph - N/A   Clear
5:53 PM 34.0 °F 28.0 °F 26.1 °F 73% 30.33 in 10.0 mi NW 6.9 mph - N/A   Clear
6:51 PM 33.8 °F 27.0 °F 26.6 °F 75% 30.33 in 10.0 mi NW 8.1 mph - N/A   Mostly Cloudy
6:53 PM 34.0 °F 27.2 °F 26.1 °F 73% 30.35 in 10.0 mi NW 8.1 mph - N/A   Mostly Cloudy
7:53 PM 34.0 °F 26.6 °F 26.1 °F 73% 30.36 in 10.0 mi NW 9.2 mph - N/A   Overcast
8:53 PM 33.1 °F 26.1 °F 25.0 °F 72% 30.38 in 10.0 mi NNW 8.1 mph - N/A   Overcast
9:53 PM 32.0 °F 26.4 °F 24.1 °F 73% 30.38 in 10.0 mi NW 5.8 mph - N/A   Overcast
10:53 PM 32.0 °F 26.4 °F 24.1 °F 73% 30.38 in 10.0 mi NW 5.8 mph - N/A   Overcast
11:53 PM 32.0 °F 28.7 °F 23.0 °F 69% 30.38 in 9.0 mi NW 3.5 mph - N/A   Overcast